STARLINK-34245, 64193

Orbit data source: Space-Track

STARLINK-34245, 64193 is a payload satellite owned by SpaceX/Seattle (US) in LEO that was launched on Wed, 28 May 2025 UTC via an FALCON 9 launch vehicle from the Air Force Eastern Test Range (AFETR). Payload-class satellites include a variety of spacecraft equipped with specific instruments for various scientific and technological missions. These include communications satellites like Starlink; space stations such as the ISS; scientific satellites like the Hubble; Earth observation satellites from companies like Planet Labs, Umbra, and HawkEye 360; GPS; miniature CubeSats for education and research; and military/defense satellites.

Loading next visibility...
Identifier
64193, 2025-113Z
Orbit
LEO
Country
Flag of USUS
Related business
Manufacturer
SpaceX/Seattle
Mission
Operational Commercial Communications
Bus & Motor
STARLINK V2MO, Unknown motor
Mass
575 kg wet, ~530 kg dry
Launch date (UTC)
2025-05-28 (1 year ago)
Launch vehicle
FALCON 9
Launch site
Air Force Eastern Test Range (AFETR)
Object type
Payload
Rocket body
Debris
Shape & HBR
Box + 2 Pan, 17.7 m
Radar Cross Section
36.964 m², Large (>1 m²)

Expand to show TLE details & history
Last TLE update: 23 hours ago

TLE from 23 hours ago
0 STARLINK-34245
1 64193U 25113Z   26170.87099975  .00017086  00000-0  51572-3 0  9990
2 64193  53.1601 334.8017 0001156  74.4221 285.6910 15.34396664 60699
Epoch: 2026-06-19T20:54Z
TLE epoch observation values (Epoch: 2026-06-19T20:54:14.378Z)
Latitude
0.00005°
Longitude
113.14807°
Altitude
463.401 km
Speed
7.636 km/s
True Right ascension
22h 19m 12s
True Declination
0° 00' 00"
Sunlit
Object was in full shadow at epoch
Visualization orbit readout
Latitude
Unknown
Longitude
Unknown
Altitude
Unknown
Speed
Unknown
Apparent Right ascension
Unknown
Apparent Declination
Unknown
Sunlit
N/A
Visualization observer readout
Local Sidereal Time
07:16:00
Azimuth
Unknown
Elevation
Unknown
Doppler factor
Unknown
Orbital elements
Apogee altitude
463.761 km
Perigee altitude
462.179 km
Semi-major axis
6,841.107 km
Eccentricity
0.00012
Inclination
53.1601°
RAAN
334.8017°
Arg. of periapsis
74.4221°
True anomaly
285.67825°
Mean anomaly
285.691°
Eccentric anomaly
285.68462°
Mean motion
3.83578 °/min
Orbital period
93.85 mins
BSTAR
0.00051572
Loading maneuver chart data...
Computing Atmospheric mass density...
Loading historical data...
Loading historical data...
Loading historical data...
Loading historical data...
Loading historical data...
Loading historical data...
Loading historical data...

Documentation

Showing up to 5 results
|